Theta_e
340 341 341 335 319 314 309 309 313 311 311 313 313 310 309 309 306 303 326 330 331 331 336 339 352 353 352 351 350 349 349 344 340 337 336 335 334 332 332 333 336 338 339 340 340 338 340 341 342
338 337 335 327 313 307 310 311 310 313 313 314 312 310 309 307 313 316 321 329 330 329 335 333 351 354 354 353 351 349 348 345 341 339 337 337 335 333 333 333 335 336 337 338 340 339 338 341 341
334 334 326 319 313 307 308 312 313 313 313 313 311 313 311 310 316 319 325 327 327 328 327 330 347 352 354 353 348 348 345 344 343 340 339 338 337 336 334 334 334 336 336 336 338 340 339 339 341
332 330 325 313 309 311 310 314 315 312 312 313 312 308 315 320 319 323 325 325 323 323 324 331 337 344 348 349 348 347 345 343 340 339 339 338 338 337 335 334 334 334 335 336 337 337 339 339 341
331 324 313 311 310 312 314 315 314 312 312 311 311 309 311 319 323 324 322 322 322 323 325 327 336 339 343 346 345 344 342 341 340 337 337 337 338 337 335 335 334 334 334 334 336 337 338 341 341
321 321 310 307 309 313 315 315 313 312 313 311 309 310 313 322 321 322 323 324 326 326 329 329 334 336 333 336 337 335 335 335 334 335 335 335 335 335 335 335 335 334 334 334 333 335 337 339 342
318 314 309 309 309 311 312 314 311 311 311 310 313 308 315 318 321 322 321 322 323 324 324 326 328 328 329 326 327 330 330 331 332 333 333 333 333 333 335 335 335 334 333 333 333 333 337 338 339
321 316 310 311 309 309 314 312 313 311 310 314 315 308 311 320 321 321 321 322 322 323 323 326 328 328 330 330 330 329 330 330 330 331 331 332 332 332 333 334 334 334 334 335 333 333 336 338 338
321 310 307 309 309 312 316 313 314 314 312 312 314 314 316 319 320 319 320 320 322 321 323 325 328 330 331 331 330 329 330 329 328 329 328 328 329 330 332 332 333 334 334 334 333 333 335 338 337
314 308 308 313 315 314 316 314 315 310 310 311 312 314 316 317 318 317 317 318 318 320 321 324 330 331 331 330 333 332 331 329 328 329 328 329 329 329 329 328 330 332 334 333 333 333 336 337 338
313 308 312 313 316 316 314 313 315 311 309 312 312 314 315 316 318 317 316 318 319 321 321 325 331 332 332 331 331 330 330 330 329 328 329 330 328 329 329 327 328 331 333 333 333 332 334 337 338
310 312 313 315 315 313 312 314 310 311 313 315 315 316 316 316 317 317 317 319 319 319 323 328 330 332 334 332 330 330 328 329 327 329 331 330 328 329 327 326 327 332 332 333 333 330 334 337 339
311 311 314 316 314 313 312 310 310 311 314 315 315 316 316 317 318 318 319 321 321 318 327 328 330 333 333 332 331 331 330 330 331 330 331 331 328 328 327 326 329 330 329 330 333 333 335 337 338
313 313 313 314 312 311 309 310 309 312 314 314 314 315 316 316 317 319 319 321 320 320 327 328 330 333 333 333 333 332 332 331 331 331 330 333 332 331 332 329 329 329 329 331 332 332 334 338 337
313 309 311 311 311 310 310 307 308 314 314 313 313 315 315 316 317 318 319 321 320 322 327 327 329 331 333 334 333 333 333 333 330 330 333 332 333 333 332 332 332 333 336 335 334 336 336 336 336
308 309 305 311 310 309 308 302 310 313 312 312 313 314 314 316 317 318 321 322 322 323 324 327 329 332 333 335 334 333 333 334 333 333 333 334 334 334 335 335 335 336 336 337 333 333 333 334 336
307 302 305 307 312 309 308 306 311 313 312 312 313 314 313 315 317 320 322 323 321 321 323 326 330 331 333 334 333 334 334 334 335 337 336 334 334 335 336 337 336 338 337 337 336 335 334 334 334
302 303 305 305 309 308 307 307 309 312 312 312 314 314 313 314 316 320 323 323 322 321 324 327 330 331 332 333 333 333 333 336 337 331 329 334 335 334 335 337 336 337 336 336 338 337 338 334 334
307 305 304 307 309 307 307 307 309 312 312 312 313 314 314 315 318 320 322 324 322 322 322 328 328 330 329 331 330 330 329 327 329 330 330 329 334 333 332 334 333 334 334 336 337 339 334 336 336
307 305 305 307 309 307 306 306 309 311 312 314 314 315 315 316 316 318 322 324 323 320 320 326 327 328 331 331 332 332 331 329 331 328 331 332 332 333 334 335 336 336 334 336 336 336 333 334 332
306 305 305 304 308 308 306 304 307 310 312 313 315 316 317 316 316 317 320 323 323 321 320 324 326 330 333 336 338 336 334 331 333 328 328 332 332 333 334 334 335 337 338 337 337 338 333 328 331
303 308 307 305 303 298 306 296 304 307 308 311 314 315 316 316 317 318 320 322 322 322 323 324 327 330 333 335 332 333 331 328 331 333 329 328 334 331 335 335 335 337 338 337 339 340 336 333 326
305 309 307 306 303 303 302 299 303 306 305 308 312 316 317 317 317 318 319 321 320 324 324 328 328 328 334 335 333 330 333 330 336 332 332 328 330 331 330 334 335 336 338 337 336 337 336 334 330
310 306 306 306 303 296 301 300 299 304 305 309 312 315 316 316 317 318 321 320 320 324 324 326 327 327 330 333 332 331 332 331 329 330 330 329 332 328 331 333 332 338 337 336 338 338 336 336 339
308 304 296 295 295 294 302 298 301 307 309 311 313 316 317 316 316 317 319 318 319 322 323 325 324 326 328 331 330 330 331 331 326 326 330 327 328 331 331 330 335 335 337 336 338 338 338 338 338
305 304 297 290 292 296 301 296 303 309 313 316 316 317 317 316 316 317 319 319 318 321 323 324 323 324 325 328 329 330 330 328 327 327 331 328 329 331 331 331 332 332 331 335 338 339 336 338 335
304 301 307 300 301 296 299 302 308 309 311 314 315 314 315 316 316 318 319 320 319 321 324 326 325 324 325 326 329 329 330 331 328 333 333 331 331 332 330 333 332 333 333 334 336 332 331 333 331
307 308 299 301 293 291 296 298 300 305 306 314 315 314 315 316 316 318 319 320 320 321 325 328 328 323 326 326 326 326 328 330 329 335 331 329 329 326 325 326 327 330 330 329 332 335 331 329 330
304 303 304 304 301 294 293 298 308 307 310 312 317 317 316 316 316 318 319 320 320 322 324 327 328 324 324 325 326 327 326 329 330 330 331 331 331 332 325 325 326 327 328 329 334 331 329 327 327
308 304 305 298 297 300 299 299 311 311 313 317 320 318 317 317 317 319 320 319 319 321 322 325 327 324 321 323 325 327 326 328 329 330 331 333 332 331 333 330 329 328 329 330 331 331 332 330 329
Wind_Speed
11 11 5 6 8 7 7 3 5 5 4 3 5 4 5 5 5 7 4 4 4 1 4 8 12 13 13 13 14 13 12 12 12 12 11 11 11 14 13 12 10 9 9 9 10 8 9 8 8
9 8 6 4 9 8 2 4 6 7 4 4 5 5 6 4 1 1 4 6 4 1 3 6 12 14 16 16 15 12 11 12 13 13 13 13 13 13 15 14 13 11 10 10 10 10 10 9 8
9 9 9 5 6 8 6 5 6 4 5 7 3 4 1 2 3 1 5 5 4 4 4 5 3 12 16 15 13 13 13 14 15 16 16 17 16 15 15 15 15 14 13 11 12 12 11 10 10
7 7 6 10 7 1 7 9 7 7 5 6 4 5 3 1 4 3 3 4 4 6 4 2 2 10 13 14 14 14 14 14 15 17 19 19 19 18 18 16 15 14 13 12 12 12 12 12 10
7 5 10 8 8 4 6 9 8 9 5 2 5 3 2 5 4 5 3 2 5 7 6 8 2 7 10 13 14 14 13 14 15 18 20 21 20 19 18 18 17 16 13 11 12 12 11 13 10
8 5 10 12 3 3 5 7 7 7 7 4 5 4 2 5 8 4 3 1 2 2 3 4 2 1 5 7 9 10 10 10 11 13 15 17 20 21 21 19 19 18 16 14 13 13 13 10 10
13 7 13 10 10 9 5 6 7 7 7 8 1 6 3 8 5 5 4 3 2 1 4 5 7 6 7 3 5 8 10 12 14 15 16 18 17 17 20 19 20 18 16 16 14 15 13 11 11
8 8 15 13 11 10 3 3 4 7 8 6 5 6 5 8 9 7 6 3 4 4 6 7 7 9 7 8 7 9 11 12 13 15 16 13 13 16 17 16 19 20 18 15 14 15 14 12 9
5 11 11 11 11 10 4 11 5 3 7 7 7 6 3 8 10 8 6 6 4 5 6 7 9 7 7 8 8 8 9 10 11 11 10 10 10 10 10 10 14 18 17 14 13 13 14 12 9
10 11 15 7 10 14 16 8 14 6 6 10 9 4 6 10 10 9 6 4 4 6 8 6 6 7 8 8 6 8 7 6 7 7 8 8 8 9 8 11 11 13 18 16 12 12 13 12 9
13 14 14 13 13 15 17 10 9 10 10 10 9 12 12 11 10 8 4 3 5 6 6 7 6 6 7 7 6 5 4 4 4 7 6 6 6 5 6 6 9 10 13 10 12 12 10 12 8
15 16 16 13 10 9 7 6 8 12 11 4 6 5 14 14 11 9 5 3 4 6 6 6 6 6 6 6 6 5 5 5 4 4 6 4 5 4 4 6 9 7 8 11 8 7 9 8 13
15 17 14 12 11 8 3 10 9 11 6 6 6 11 14 12 10 6 3 1 4 6 6 7 7 6 6 7 5 5 5 4 5 4 6 5 5 4 5 5 7 8 10 9 9 8 8 10 12
13 11 14 10 9 6 8 3 5 7 3 9 11 13 13 13 11 8 5 2 3 4 4 6 7 5 6 6 6 6 4 5 4 3 7 6 5 5 5 4 7 8 8 9 8 9 9 10 10
12 13 12 13 9 5 5 9 10 9 5 11 13 12 12 12 11 9 5 3 2 3 3 7 6 5 6 7 5 5 4 5 4 5 5 7 6 6 4 4 5 4 4 8 7 7 9 8 8
11 13 14 12 8 6 7 11 14 3 10 14 14 13 12 14 12 8 6 4 1 3 5 6 6 7 6 6 6 5 4 4 4 5 7 7 7 8 5 5 6 7 7 8 9 10 11 10 9
14 14 16 8 9 4 11 14 10 3 10 12 13 14 13 13 12 10 8 6 2 1 4 7 6 7 8 6 6 5 4 4 4 4 5 7 8 7 6 5 5 7 7 7 7 7 9 8 8
14 15 9 12 7 10 11 15 13 15 13 12 13 13 14 15 15 12 10 6 3 1 3 6 5 6 8 5 2 4 3 5 5 3 5 6 5 5 6 5 5 7 7 8 8 9 8 10 9
10 11 13 9 6 9 14 13 14 16 14 12 13 14 16 15 12 11 10 7 4 2 3 5 6 6 7 6 6 4 5 5 4 5 6 7 6 2 4 5 6 6 7 9 10 9 11 8 10
14 16 16 8 9 7 13 15 16 16 12 10 12 14 15 14 14 13 11 9 6 1 1 4 4 5 6 5 4 3 4 2 4 3 5 3 4 4 4 5 6 8 6 9 11 12 8 10 7
18 18 13 11 10 12 12 17 7 8 7 9 10 11 13 16 16 15 13 10 7 4 2 1 4 5 5 6 5 3 3 1 3 4 4 7 4 1 3 5 6 8 8 8 11 12 15 10 6
20 15 14 13 12 11 2 13 11 9 9 9 8 10 12 15 16 15 14 11 8 6 5 2 3 4 5 7 6 6 5 4 3 5 3 4 6 4 2 5 7 7 7 9 10 11 11 12 10
17 13 13 15 12 11 15 8 8 5 8 6 7 7 10 14 17 16 15 12 10 8 6 3 1 4 5 6 7 7 7 6 4 4 7 5 6 6 6 4 5 8 7 10 12 12 13 10 7
16 8 10 8 11 12 15 9 9 3 3 9 2 3 7 14 17 15 14 12 10 9 6 4 2 4 4 5 6 7 7 6 4 5 3 3 5 4 6 6 5 9 10 10 10 13 15 11 9
18 14 10 11 10 11 2 7 10 9 8 8 9 8 8 14 17 17 16 13 11 11 8 6 4 5 4 5 6 6 7 6 5 5 7 7 5 5 7 7 8 7 9 10 10 11 12 10 10
21 18 11 11 11 11 7 7 4 0 3 5 5 5 10 16 17 17 16 13 12 12 10 6 5 5 5 6 6 6 8 6 5 6 7 4 5 6 6 7 6 10 9 8 10 8 7 10 8
16 19 17 16 14 9 11 5 11 5 4 4 0 4 12 16 17 17 16 13 12 11 11 8 5 6 5 5 5 5 7 8 7 8 7 4 5 5 6 7 9 10 10 9 10 7 8 10 7
20 16 11 10 14 14 8 6 7 6 3 4 6 8 13 16 18 17 15 14 12 11 10 9 7 5 7 5 5 5 6 6 4 6 6 6 4 5 5 5 5 6 7 7 7 10 9 8 6
13 17 14 13 14 12 10 6 6 2 0 3 5 11 15 17 18 17 16 14 13 12 11 9 8 7 7 6 5 5 5 6 7 4 5 7 6 7 5 4 6 7 6 4 7 7 8 8 8
23 22 20 13 16 10 11 8 10 6 4 4 3 11 15 17 17 16 16 16 15 13 11 10 8 7 8 7 6 6 5 5 6 7 7 8 9 7 9 8 6 5 6 6 6 8 8 10 9
Wind_Direction
160 173 201 220 236 239 250 145 331 270 208 107 125 216 287 325 290 331 89 163 170 162 210 192 210 223 226 231 235 239 239 243 245 244 246 257 274 284 284 278 272 269 267 260 251 240 253 251 264
166 173 225 263 255 241 150 24 307 358 77 165 174 196 232 275 211 190 213 160 202 230 206 249 182 219 227 230 236 245 254 257 252 254 257 260 265 268 274 275 266 256 257 260 257 243 241 248 253
183 239 267 257 262 270 335 355 318 350 183 210 215 293 17 103 153 98 93 155 208 246 249 254 260 232 233 240 247 251 257 256 256 259 259 262 261 258 257 265 266 258 252 251 257 247 234 243 246
199 201 218 255 251 30 300 325 320 283 199 223 254 239 154 72 147 140 128 191 243 265 280 203 240 269 263 258 264 266 270 271 273 271 270 270 268 259 257 252 256 255 254 261 256 260 247 232 242
224 251 260 252 262 293 289 304 298 275 264 212 218 281 271 175 140 158 160 211 276 290 309 287 122 272 274 277 273 273 281 283 282 278 274 275 274 271 254 251 245 241 239 241 257 260 255 247 233
235 276 249 253 255 274 318 336 287 263 268 135 234 260 284 114 187 161 162 121 344 332 313 314 165 322 332 335 338 340 329 309 293 292 292 289 281 273 264 248 242 237 234 239 243 258 254 251 236
259 254 268 291 280 282 13 339 265 290 267 231 263 257 49 190 153 171 158 158 191 282 285 301 297 296 248 269 319 318 310 302 298 292 289 282 277 277 265 249 241 232 232 234 237 249 260 253 243
271 276 270 258 277 295 23 266 287 263 282 79 198 256 239 175 171 168 197 183 225 254 307 303 282 295 298 297 296 312 307 303 298 290 284 288 292 274 266 251 236 229 230 228 228 239 254 248 230
249 261 262 269 277 296 285 282 138 328 240 219 194 264 48 151 168 186 207 235 300 314 314 303 311 316 295 291 292 283 278 299 292 279 272 273 266 277 268 240 242 225 227 228 232 232 246 246 220
229 251 264 286 297 285 296 291 302 226 208 227 215 180 176 178 183 207 223 268 308 321 325 321 321 309 296 282 286 277 281 299 296 279 291 286 291 276 295 281 249 243 227 222 230 235 241 232 214
229 255 279 275 272 295 291 287 265 255 264 251 239 196 193 192 195 219 231 323 328 324 311 348 319 301 297 311 312 286 311 281 267 269 282 274 272 285 260 251 216 220 210 217 210 213 227 217 204
244 250 262 271 298 284 269 277 251 246 283 353 239 197 190 196 195 208 210 261 327 333 331 331 331 296 298 310 295 312 272 307 275 283 275 283 265 263 250 247 242 196 198 216 233 209 217 199 202
234 267 255 270 268 245 255 247 279 279 274 231 224 186 197 195 196 193 190 249 313 326 352 335 326 306 298 295 301 292 288 292 320 268 276 245 268 283 238 254 222 218 197 195 209 217 199 198 195
252 267 257 261 236 199 240 252 266 292 233 214 211 205 200 197 193 187 190 223 305 336 337 339 323 309 294 293 289 298 281 294 291 287 262 260 254 251 221 197 194 210 191 194 196 192 187 183 190
253 254 242 234 214 232 261 250 241 277 194 226 220 213 202 201 195 203 183 195 297 336 329 337 307 312 299 297 291 292 293 280 283 277 254 255 249 242 231 195 204 186 179 195 192 181 176 175 171
232 230 231 176 203 166 230 273 276 200 209 229 221 213 204 201 197 195 190 194 237 312 341 332 322 321 324 309 296 300 310 304 293 267 263 246 248 259 249 218 200 184 178 186 178 174 173 167 171
215 243 218 225 206 210 223 288 297 271 243 255 230 219 210 200 200 191 195 192 203 328 330 327 336 340 342 308 301 292 304 275 259 267 278 271 252 253 252 238 190 177 172 173 177 185 161 150 172
224 219 232 254 198 230 264 272 278 280 239 251 252 225 216 210 201 191 197 188 197 293 304 302 313 341 334 307 283 331 334 325 330 32 320 294 262 246 234 211 182 170 171 165 170 162 167 161 155
272 253 250 252 272 267 279 289 287 283 270 253 249 223 218 211 196 186 187 187 194 229 296 290 326 349 341 348 346 342 13 3 20 340 307 281 269 225 199 185 169 195 177 171 167 158 150 131 131
230 240 244 247 268 273 286 288 293 282 270 263 242 222 215 202 191 186 185 188 191 189 301 284 326 352 348 355 353 341 353 39 342 312 326 44 174 201 192 178 179 181 181 174 164 160 149 132 144
225 239 242 259 302 259 260 274 262 272 240 244 243 233 208 202 192 186 185 186 180 179 184 340 2 350 20 4 23 32 115 165 51 30 20 22 42 188 207 208 185 174 176 178 163 159 151 141 139
227 217 259 261 264 282 5 293 281 273 275 254 236 215 209 196 192 183 181 180 179 163 163 145 40 20 58 15 49 19 5 50 32 53 73 18 72 114 134 168 185 179 169 170 161 155 146 148 140
238 232 232 257 268 284 260 252 288 238 278 292 279 191 197 190 188 180 178 174 174 156 167 171 80 57 57 48 19 357 24 51 6 89 79 33 54 72 81 85 125 139 138 150 151 149 151 141 153
225 203 226 244 256 246 254 249 276 274 314 319 323 118 182 180 181 174 173 167 168 160 162 171 126 85 73 49 40 28 20 48 44 20 62 39 81 79 68 90 105 119 123 140 144 142 140 154 149
220 213 223 217 216 249 139 245 258 309 313 324 307 318 167 174 174 172 171 173 170 164 165 177 154 101 75 60 51 37 37 45 60 20 49 56 53 58 46 87 120 115 105 122 141 147 146 141 139
203 208 233 224 243 249 151 250 218 7 317 288 319 326 153 171 171 172 173 175 171 168 167 173 150 130 105 83 59 49 27 46 70 56 79 78 79 48 20 83 109 105 116 126 138 129 117 119 120
186 219 227 256 268 273 275 187 254 254 246 205 160 137 161 167 170 171 172 177 171 171 169 178 151 134 117 96 86 66 62 48 52 75 87 71 66 69 46 43 117 131 132 120 131 118 101 113 116
219 201 199 222 241 237 236 233 270 225 350 101 168 168 167 167 171 172 174 175 174 170 168 182 177 149 130 114 97 79 79 74 99 77 98 90 87 65 70 62 62 70 71 60 103 119 124 109 119
187 220 215 253 227 235 243 253 103 277 190 340 164 169 172 176 176 173 174 175 176 171 171 183 178 164 146 134 121 101 90 80 91 82 69 79 91 115 96 83 87 101 110 124 104 115 128 133 140
200 214 206 223 212 245 277 258 145 248 252 282 188 170 177 177 177 177 173 174 176 176 174 179 178 172 150 145 139 112 110 101 91 86 87 97 115 120 125 138 141 135 126 144 158 169 143 136 139